Location: Rogalle
(42.8890°N, 1.1916°E)
Time: 03:18:33
(UTC+00:00)

Cosmos 1655 Rocket - Pass Details

Date: 13 December 2025
Orbit: 969 x 1006 km, 83.0° (Epoch: 12 January)

Event Time Altitude Azimuth Distance (km) Brightness Sun altitude
Rises 18:04:05 0° 349° (NNW) 3,680 7.0 -18.1°
Reaches altitude 10° 18:06:37 10° 346° (NNW) 2,725 6.3 -18.5°
Maximum altitude 18:12:45 63° 267° (W) 1,074 4.4 -19.6°
Drops below altitude 10° 18:18:51 10° 188° (S) 2,704 6.6 -20.7°
Sets 18:21:21 0° 185° (S) 3,648 7.2 -21.2°
